TimeCST,TemperatureF,Dew PointF,Humidity,Sea Level PressureIn,VisibilityMPH,Wind Direction,Wind SpeedMPH,Gust SpeedMPH,PrecipitationIn,Events,Conditions,WindDirDegrees,DateUTC
12:55 AM,11.5,5.7,78,30.12,10.0,WNW,11.5,-,N/A,,Clear,290,2012-12-04 06:55:00
1:55 AM,11.3,5.5,78,30.15,10.0,WNW,11.5,-,N/A,,Clear,290,2012-12-04 07:55:00
2:55 AM,10.9,5.7,79,30.18,10.0,NW,13.8,-,N/A,,Clear,310,2012-12-04 08:55:00
3:55 AM,10.2,5.5,81,30.21,10.0,WNW,13.8,-,N/A,,Clear,300,2012-12-04 09:55:00
4:48 AM,10.4,5.0,79,30.23,10.0,NW,12.7,-,N/A,,Mostly Cloudy,310,2012-12-04 10:48:00
4:55 AM,10.2,5.7,82,30.23,10.0,NW,13.8,-,N/A,,Mostly Cloudy,310,2012-12-04 10:55:00
5:55 AM,10.8,6.1,81,30.25,10.0,NNW,11.5,-,N/A,,Overcast,330,2012-12-04 11:55:00
6:55 AM,11.5,6.4,80,30.29,10.0,NW,10.4,-,N/A,,Overcast,310,2012-12-04 12:55:00
7:55 AM,12.0,6.6,79,30.32,10.0,NW,8.1,-,N/A,,Overcast,320,2012-12-04 13:55:00
8:55 AM,12.4,6.1,76,30.34,10.0,North,6.9,-,N/A,,Overcast,360,2012-12-04 14:55:00
9:39 AM,12.2,5.0,73,30.35,10.0,NNE,9.2,-,N/A,,Scattered Clouds,20,2012-12-04 15:39:00
9:55 AM,11.8,5.5,76,30.37,10.0,North,8.1,-,N/A,,Partly Cloudy,10,2012-12-04 15:55:00
10:17 AM,10.4,5.0,79,30.36,10.0,NE,8.1,-,N/A,,Mostly Cloudy,50,2012-12-04 16:17:00
10:33 AM,10.4,5.0,79,30.37,10.0,NNE,8.1,-,N/A,,Scattered Clouds,30,2012-12-04 16:33:00
10:55 AM,11.1,4.1,73,30.36,10.0,NNE,6.9,-,N/A,,Clear,30,2012-12-04 16:55:00
11:55 AM,11.8,3.7,70,30.37,10.0,Calm,Calm,-,N/A,,Clear,0,2012-12-04 17:55:00
12:55 PM,13.8,4.3,66,30.36,10.0,Variable,3.5,-,N/A,,Clear,0,2012-12-04 18:55:00
1:55 PM,15.6,5.9,66,30.35,10.0,East,4.6,-,N/A,,Clear,100,2012-12-04 19:55:00
2:55 PM,16.0,6.6,67,30.32,10.0,ESE,6.9,-,N/A,,Clear,120,2012-12-04 20:55:00
3:55 PM,16.7,7.3,67,30.32,10.0,SE,9.2,-,N/A,,Clear,130,2012-12-04 21:55:00
4:55 PM,16.3,8.2,70,30.32,10.0,SE,9.2,-,N/A,,Clear,130,2012-12-04 22:55:00
5:55 PM,15.4,8.6,74,30.30,10.0,East,9.2,-,N/A,,Clear,100,2012-12-04 23:55:00
6:55 PM,15.6,9.3,76,30.29,10.0,ESE,11.5,-,N/A,,Mostly Cloudy,120,2012-12-05 00:55:00
7:55 PM,15.3,9.7,79,30.29,10.0,SE,11.5,-,N/A,,Overcast,130,2012-12-05 01:55:00
8:55 PM,14.9,10.0,81,30.28,10.0,SE,12.7,-,N/A,,Clear,140,2012-12-05 02:55:00
9:55 PM,15.3,10.9,83,30.25,10.0,SE,15.0,-,N/A,,Overcast,130,2012-12-05 03:55:00
10:55 PM,16.5,12.0,82,30.23,10.0,SE,13.8,-,N/A,,Overcast,140,2012-12-05 04:55:00
11:55 PM,17.6,12.2,79,30.22,10.0,SE,16.1,-,N/A,,Overcast,140,2012-12-05 05:55:00